Torna al catalogo

FENGYUN 1C DEB

AttivoSSO
NORAD 30361·DEBRIS·🇨🇳 China

Lanciato May 10, 1999 da Taiyuan Satellite Launch Center

Loading…

Prossimi Passaggi (prossime 24 ore)

TLE

AggiornatoSource: Space-Track

Epoca: Sep 14, 2026, 01:48 UTC

1 30361U 99025ABY 26257.07543975  .00001246  00000-0  52547-3 0  9999
2 30361  98.5465 291.5412 0063148 306.5391  52.9985 14.26378823 15418

Traccia FENGYUN 1C DEB in tempo reale con AllMySat

Download on the App Store